{"data":{"norad_id":62912,"intl_designator":"2025-027F","name":"STARLINK-11565 [DTC]","alt_names":[],"object_type":"PAYLOAD","status":"ACTIVE","operator":null,"country":"US","launch_date":"2025-02-08","launch_site_code":"AFETR","launch_vehicle":null,"mission":null,"orbit_class":"UNKNOWN","rcs_meters":null,"size_class":null,"mass_kg":null,"dimensions":null,"purposes":["comms"],"wikipedia_slug":null,"has_3d_model":false,"image_url":null,"decayed_at":null,"tle_current":{"epoch":"2026-05-24T15:38:51.578304Z","epoch_age_seconds":99078,"freshness":"FRESH","line1":"1 62912U 25027F   26144.65198586  .00152696  00000+0  11655-2 0  9999","line2":"2 62912  43.0043 249.3761 0003584 268.1344  91.9113 15.70962883 75102","mean_motion":15.70962883,"eccentricity":0.0003584,"inclination_deg":43.0043,"raan_deg":249.3761,"arg_perigee_deg":268.1344,"mean_anomaly_deg":91.9113,"bstar":0.0011655,"rev_number":7510,"period_min":91.663527864522,"perigee_km":353.73029559022,"apogee_km":358.55742811199,"semimajor_km":6734.2808618511,"source":"CELESTRAK","updated_at":"2026-05-25T13:38:19.819151Z"}}}